Location: St Paul
(33.4390°N, 83.7350°W)
Time: 13:53:44
(UTC-05:00)

Cosmos 2218 Rocket - Pass Details

Date: 06 October 2017
Orbit: 957 x 1005 km, 82.9° (Epoch: 14 December)

Event Time Altitude Azimuth Distance (km) Brightness Sun altitude
Rises 20:23:21 0° 176° (S) 3,661 6.9 -15.6°
Reaches altitude 10° 20:25:53 10° 173° (S) 2,710 6.2 -16.2°
Maximum altitude 20:32:00 65° 93° (E) 1,056 3.9 -17.4°
Drops below altitude 10° 20:38:05 10° 13° (NNE) 2,698 6.2 -18.7°
Sets 20:40:36 0° 10° (N) 3,644 7.0 -19.2°
